Wind_Speed
4 3 3 3 2 3 4 4 4 4 4 3 2 2 2 2 3 4 4 4 5 6 6 6 6 6 7 7 7 8 8 7 8 8 8 7 7 7 8 8 9 9 10 10 10 11 11 11 11
5 5 4 3 2 5 6 6 6 6 5 4 4 4 5 5 5 5 5 5 6 7 7 7 8 7 8 8 8 8 9 9 9 9 10 10 10 9 9 10 10 10 11 12 11 12 12 12 13
6 6 5 4 5 7 7 7 7 6 6 5 5 5 6 6 7 7 6 6 7 8 8 8 9 9 9 9 10 10 10 10 10 11 11 11 11 11 11 11 11 12 12 13 13 13 13 14 14
7 7 6 5 7 7 8 8 7 8 7 6 6 6 6 7 8 8 8 8 8 9 10 10 10 10 10 10 11 12 12 12 12 13 12 13 13 12 12 12 12 12 13 13 13 13 14 14 15
7 6 5 6 8 9 9 9 8 8 8 6 6 6 7 7 7 8 9 10 10 10 10 10 11 11 11 12 12 13 14 13 13 14 14 14 14 14 14 14 13 13 13 14 15 15 14 15 15
7 6 6 8 9 9 8 8 8 8 8 7 6 6 7 8 9 9 10 11 11 11 11 12 12 13 13 13 14 14 15 15 15 16 15 16 16 15 15 15 15 15 15 15 16 16 16 16 16
8 7 7 8 9 9 9 7 7 8 8 7 6 6 7 8 10 11 12 12 12 12 13 14 14 14 14 15 15 16 16 17 17 17 16 16 16 17 17 16 16 16 16 17 17 17 17 17 17
8 7 7 8 9 9 9 8 8 8 9 8 8 8 8 9 10 11 11 12 13 12 13 13 14 15 15 16 16 17 18 18 18 18 18 17 17 18 18 18 18 17 17 18 18 19 19 19 18
8 7 8 9 9 10 9 9 9 9 10 10 9 9 9 10 11 11 12 12 12 13 13 14 15 16 16 17 18 19 19 19 19 19 19 19 19 18 18 19 19 19 19 19 19 19 20 19 19
8 8 9 9 10 9 9 8 8 9 9 10 10 10 10 11 12 12 12 13 13 14 15 15 16 17 17 18 19 19 19 20 20 19 19 19 19 19 19 19 19 19 19 20 20 19 20 20 20
9 8 8 9 9 9 9 9 9 10 9 10 11 11 12 12 13 13 13 14 15 15 16 17 17 18 18 19 19 20 20 20 20 20 19 19 19 19 20 20 19 20 20 20 20 20 19 19 19
8 8 8 9 9 8 9 9 9 10 11 11 12 12 12 13 14 15 15 17 17 16 16 17 17 18 18 18 18 19 20 20 20 20 19 19 19 20 20 20 20 20 20 20 19 20 19 19 19
8 8 8 9 9 9 9 9 10 10 11 12 12 12 13 15 15 16 17 18 18 18 18 18 18 17 18 18 19 19 20 20 20 20 20 19 20 20 20 20 20 20 20 21 20 20 20 20 19
8 7 8 9 10 9 10 10 11 11 11 11 12 13 14 15 16 17 18 19 19 19 19 19 19 19 20 20 20 20 20 21 20 20 20 20 20 19 19 20 20 21 21 21 21 21 20 21 20
7 7 7 8 8 9 10 10 11 11 11 11 12 13 15 15 16 17 19 20 21 20 19 19 20 20 21 21 21 20 20 21 20 20 20 20 20 20 20 20 20 21 21 22 22 21 21 21 21
7 6 7 8 8 9 9 10 10 10 11 12 12 13 15 15 16 18 20 20 20 21 21 21 21 21 21 21 21 21 21 21 21 21 20 21 21 21 21 21 21 21 20 20 20 21 21 21 22
7 7 8 10 9 9 9 10 11 12 13 13 14 15 16 17 17 18 19 20 20 21 22 21 21 21 20 20 20 21 21 20 20 20 20 20 20 20 20 21 21 20 19 19 19 20 20 20 21
9 8 10 10 10 9 10 11 12 13 14 15 15 16 16 17 18 19 19 19 20 21 21 21 21 20 19 19 19 20 20 20 20 20 19 19 19 19 19 19 19 19 18 19 19 19 20 20 21
9 10 10 10 9 10 10 12 13 13 14 14 15 16 18 19 20 19 20 20 20 21 21 21 20 19 20 20 20 20 19 18 18 18 18 17 17 17 17 18 18 19 19 19 19 20 20 21 21
10 11 11 11 10 11 11 12 13 14 14 15 16 17 18 20 20 19 19 19 20 20 21 21 19 18 20 20 20 19 17 17 16 16 16 17 16 16 17 16 17 18 18 18 20 20 21 21 22
10 10 11 11 11 12 13 13 14 15 15 16 17 17 18 19 18 18 19 19 20 20 20 20 19 19 19 19 18 17 16 15 16 16 16 17 17 16 16 16 16 17 18 18 19 20 21 21 22
11 11 11 11 12 13 13 14 15 16 16 17 17 18 18 19 18 18 19 19 20 19 19 19 18 18 18 18 17 16 15 16 16 16 16 16 16 16 15 15 17 18 18 19 19 20 21 21 22
11 11 12 12 12 13 14 14 16 16 17 17 18 19 18 18 18 19 19 18 18 18 18 17 17 18 18 17 16 15 14 14 15 16 15 16 15 15 15 16 17 18 18 19 19 20 21 21 21
11 11 13 13 13 14 14 14 16 16 17 17 18 19 19 18 18 18 17 18 18 18 18 18 17 18 17 16 15 14 13 14 14 15 15 15 15 14 15 16 16 17 18 18 19 19 20 20 20
11 11 11 12 12 13 15 15 16 16 17 17 18 18 18 19 19 19 18 19 19 18 18 18 18 18 17 15 13 13 13 14 14 14 14 14 14 15 15 15 16 17 17 17 17 18 18 19 19
11 10 11 11 11 14 15 15 16 16 17 17 18 19 19 19 19 19 18 18 18 17 17 16 16 16 16 14 12 12 12 13 13 13 14 13 14 15 15 15 15 15 15 16 17 17 18 18 19
11 11 12 13 13 14 15 16 16 16 17 17 18 18 18 18 18 18 18 18 18 17 17 16 16 15 14 13 13 13 13 13 13 14 14 14 14 15 15 14 13 13 15 16 16 17 18 19 19
12 12 13 13 14 14 16 16 16 16 16 17 18 18 18 18 17 17 17 17 17 17 17 17 16 15 14 14 13 13 13 13 13 13 14 14 14 14 14 13 13 14 15 16 16 17 18 18 18
13 14 14 14 14 14 14 16 16 17 17 17 17 17 17 17 17 17 17 17 17 16 15 16 15 14 13 14 14 14 14 13 13 13 14 14 13 14 14 13 14 14 15 16 16 16 16 16 17
14 15 14 15 15 15 15 16 17 17 17 17 17 16 16 17 17 17 17 17 16 16 15 15 14 14 14 14 14 13 13 13 13 13 13 13 13 14 13 13 13 14 15 15 16 16 15 15 16
Wind_Direction
230 232 247 259 277 268 259 262 277 282 281 279 268 268 262 278 279 276 276 283 291 293 296 293 298 299 297 299 300 299 294 291 288 288 288 287 285 281 279 278 276 270 266 265 267 263 260 260 259
231 234 243 250 230 253 264 265 273 276 280 282 273 269 276 283 284 286 289 288 290 291 295 295 293 293 294 298 298 297 296 290 288 288 288 288 285 281 278 276 274 273 270 268 268 265 260 261 260
235 239 238 239 230 234 255 265 266 273 278 279 276 276 284 288 284 286 290 293 293 292 289 289 289 290 293 293 295 296 296 292 289 289 288 288 285 283 279 274 272 273 271 268 265 266 263 263 262
240 248 251 241 238 244 256 266 270 273 274 275 278 286 292 290 287 283 287 289 293 296 294 290 289 291 291 291 293 293 295 293 290 288 287 288 286 284 281 275 273 273 271 269 266 265 265 263 260
242 251 262 255 256 258 266 271 271 268 266 270 281 288 289 284 286 285 291 292 290 296 298 297 291 292 292 292 291 290 291 288 285 286 287 288 287 284 281 276 274 272 273 270 266 266 266 264 260
245 255 252 256 265 268 274 278 271 264 268 273 273 275 282 283 284 285 290 292 292 294 294 293 290 289 290 290 290 288 287 287 287 287 285 286 285 282 280 275 273 273 273 270 268 268 267 266 265
243 246 248 255 263 271 272 274 274 269 273 274 274 275 285 289 291 292 291 290 290 291 291 292 291 292 287 285 287 288 288 287 287 286 286 285 283 281 280 277 274 274 273 272 269 268 268 268 265
242 245 256 260 261 267 269 270 282 285 283 278 274 275 287 292 297 298 294 293 290 291 292 291 292 292 289 289 289 291 290 289 288 287 287 285 284 283 281 279 275 274 274 273 271 270 269 268 267
245 249 251 259 260 264 271 273 281 286 286 281 280 282 289 294 296 297 297 297 294 293 293 292 295 296 292 290 291 291 291 289 288 288 288 287 285 282 280 278 276 274 274 274 273 272 272 270 268
246 246 251 261 263 262 266 273 276 281 286 285 281 283 287 292 294 295 296 296 294 293 293 293 295 294 293 292 290 289 290 290 289 288 288 287 285 282 278 276 276 275 275 275 274 274 275 272 269
246 249 257 261 263 262 266 272 275 276 278 281 285 287 285 288 292 291 293 295 297 295 294 294 296 294 293 295 294 289 288 290 290 287 286 287 285 282 278 277 277 276 275 275 276 276 274 274 272
249 253 252 254 260 266 270 272 274 274 277 283 286 284 285 285 286 288 293 297 297 296 297 297 294 295 294 294 295 292 288 288 288 287 287 286 283 281 279 276 276 277 275 275 276 276 275 274 273
251 254 257 261 265 272 279 281 277 270 275 281 284 285 288 289 288 290 292 296 297 297 298 295 292 292 293 292 291 291 288 285 286 287 287 285 282 279 277 277 276 275 274 274 274 274 274 275 274
255 257 265 266 269 273 279 283 279 278 280 279 282 287 289 291 291 289 291 294 295 297 297 295 294 291 289 289 289 291 291 287 284 285 285 283 281 277 276 274 274 275 274 274 273 272 272 272 271
263 266 271 276 280 283 284 282 278 278 280 281 283 289 291 291 290 288 290 293 295 296 295 294 293 292 289 290 290 289 289 287 284 283 282 281 279 279 277 274 274 276 275 273 272 270 270 271 272
267 266 277 279 284 286 284 282 281 280 281 284 286 288 293 293 292 290 291 291 293 295 296 295 294 294 292 290 289 288 288 288 287 284 282 282 280 278 276 274 274 276 275 273 271 268 269 271 271
274 264 266 273 278 280 279 279 281 283 284 287 290 292 294 294 294 293 293 291 291 294 295 295 295 295 295 293 289 290 290 289 287 284 282 283 282 278 275 273 272 273 272 272 270 268 270 271 271
256 262 270 273 276 282 283 281 281 283 287 289 291 292 293 296 294 294 296 295 293 294 296 295 296 296 295 296 295 294 292 288 286 284 284 284 283 279 275 273 270 269 270 270 270 269 271 272 270
264 266 273 272 274 283 288 286 285 287 290 290 292 294 295 297 297 297 298 297 295 295 295 295 294 293 292 294 298 295 294 292 288 286 287 287 284 281 275 275 271 270 270 271 272 271 272 272 273
274 269 275 277 278 283 288 291 290 292 293 293 295 297 299 299 299 301 301 299 297 296 295 294 293 294 294 296 299 296 294 293 290 290 290 287 288 284 279 277 273 272 273 275 275 274 275 275 275
281 275 278 283 284 285 292 293 292 295 295 296 297 298 301 301 302 303 304 302 300 297 296 296 295 296 295 295 296 296 293 291 292 293 293 292 290 289 282 277 276 275 275 276 275 275 276 277 277
286 283 281 284 289 293 296 296 295 296 296 297 297 299 300 302 303 304 304 302 301 300 300 299 299 299 299 297 295 293 293 294 294 296 295 296 293 288 283 281 279 277 276 277 277 276 277 278 278
283 285 284 288 289 291 295 297 298 297 296 296 297 300 301 304 305 306 305 306 305 304 307 305 306 304 303 301 296 296 295 295 297 301 298 297 294 288 283 282 280 279 279 279 279 280 279 281 279
284 286 288 291 296 297 296 297 296 299 298 298 299 300 301 304 306 308 306 308 310 308 310 310 306 304 302 301 297 296 297 297 300 303 304 300 296 290 289 285 282 283 282 282 284 285 283 282 280
285 290 299 302 301 295 297 296 297 299 299 301 302 302 301 303 306 308 309 310 312 311 309 308 307 305 303 300 296 296 302 305 306 306 305 301 299 298 297 293 289 285 284 286 288 287 287 284 281
288 286 283 284 287 291 298 298 297 298 300 304 306 307 306 305 305 307 308 309 310 311 311 312 310 307 303 302 303 303 307 311 314 314 311 304 300 300 300 298 294 288 286 286 287 288 287 286 284
289 287 284 287 290 294 298 301 301 299 301 304 307 309 308 307 306 307 309 309 309 309 310 307 308 309 307 305 306 308 310 312 314 316 315 310 304 302 301 298 293 288 287 288 289 288 289 288 288
288 290 291 291 293 295 299 303 304 303 304 305 309 309 308 310 309 309 311 312 310 306 306 304 303 306 308 306 305 307 306 307 310 312 313 310 308 306 304 299 293 290 291 293 293 293 293 291 291
291 292 292 290 289 292 295 300 302 302 306 307 309 308 308 313 313 312 313 314 311 308 306 305 304 305 306 306 304 304 303 303 307 308 312 312 312 311 310 307 300 297 296 295 294 296 296 295 296
293 292 293 292 293 294 295 299 302 304 306 307 308 308 309 313 313 313 314 315 312 310 307 304 302 302 303 304 304 303 303 302 303 306 309 311 312 314 314 312 306 303 300 299 300 301 301 298 300
Height
5889 5889 5890 5891 5892 5894 5893 5891 5890 5890 5889 5889 5888 5888 5888 5888 5889 5890 5888 5885 5885 5884 5883 5883 5883 5882 5881 5881 5880 5879 5878 5878 5877 5877 5876 5875 5875 5874 5874 5874 5873 5873 5873 5872 5872 5872 5872 5872 5872
5887 5888 5889 5890 5892 5893 5892 5890 5889 5888 5888 5887 5887 5887 5886 5886 5886 5886 5885 5884 5883 5883 5882 5881 5881 5880 5879 5879 5878 5877 5876 5875 5875 5874 5874 5873 5873 5872 5871 5871 5871 5870 5870 5870 5870 5869 5869 5870 5870
5886 5886 5888 5889 5891 5891 5890 5889 5888 5887 5886 5886 5885 5885 5885 5885 5884 5884 5883 5882 5882 5881 5880 5879 5879 5878 5877 5877 5876 5875 5874 5873 5873 5872 5871 5871 5870 5869 5868 5868 5868 5867 5867 5867 5867 5866 5866 5866 5867
5884 5885 5887 5889 5889 5888 5888 5887 5886 5885 5885 5884 5884 5884 5883 5883 5883 5882 5881 5881 5880 5879 5878 5877 5876 5876 5875 5874 5873 5872 5872 5871 5870 5869 5868 5868 5867 5866 5865 5865 5864 5864 5864 5863 5863 5863 5863 5863 5863
5882 5884 5886 5887 5887 5886 5886 5885 5884 5884 5883 5883 5883 5882 5881 5881 5880 5880 5879 5879 5878 5877 5876 5875 5874 5874 5873 5872 5871 5870 5869 5868 5867 5866 5865 5864 5864 5863 5862 5861 5861 5861 5860 5860 5860 5859 5859 5859 5859
5882 5883 5886 5886 5885 5884 5884 5883 5883 5882 5882 5882 5881 5881 5880 5879 5879 5878 5877 5876 5875 5874 5873 5872 5871 5871 5870 5869 5868 5867 5866 5865 5864 5863 5862 5861 5860 5859 5858 5858 5857 5857 5857 5856 5856 5856 5856 5856 5856
5881 5882 5883 5884 5883 5883 5883 5882 5881 5881 5880 5880 5879 5879 5878 5877 5876 5876 5875 5874 5873 5872 5871 5870 5869 5868 5867 5866 5865 5863 5862 5861 5860 5859 5858 5857 5856 5855 5854 5853 5853 5852 5852 5852 5851 5851 5851 5851 5851
5878 5881 5882 5882 5882 5881 5881 5880 5879 5879 5878 5878 5878 5877 5876 5875 5874 5873 5872 5871 5870 5869 5868 5867 5866 5865 5863 5862 5861 5860 5858 5857 5856 5854 5853 5852 5852 5851 5850 5849 5848 5848 5847 5847 5847 5847 5847 5846 5846
5876 5880 5880 5880 5880 5879 5878 5878 5877 5877 5876 5876 5875 5875 5874 5873 5872 5871 5870 5868 5867 5866 5865 5863 5862 5861 5860 5858 5857 5856 5854 5853 5851 5850 5849 5848 5847 5846 5845 5844 5844 5843 5843 5842 5842 5842 5842 5841 5841
5875 5877 5877 5877 5877 5876 5876 5876 5875 5875 5874 5874 5873 5872 5872 5871 5869 5868 5867 5865 5864 5862 5861 5860 5859 5857 5856 5854 5853 5851 5850 5848 5847 5845 5844 5843 5842 5841 5840 5840 5839 5838 5838 5838 5837 5837 5836 5836 5836
5873 5874 5874 5874 5874 5874 5874 5874 5873 5873 5872 5872 5871 5870 5869 5868 5867 5865 5864 5862 5861 5859 5858 5856 5855 5853 5852 5850 5849 5847 5845 5844 5842 5841 5839 5838 5837 5836 5836 5835 5834 5833 5833 5833 5832 5832 5831 5831 5831
5871 5871 5871 5871 5872 5872 5872 5872 5872 5871 5870 5869 5868 5867 5866 5865 5864 5862 5861 5859 5858 5856 5854 5853 5851 5849 5848 5846 5845 5843 5841 5839 5837 5835 5834 5833 5832 5831 5830 5830 5829 5828 5828 5828 5827 5827 5827 5827 5826
5869 5869 5869 5870 5870 5870 5870 5869 5869 5868 5867 5867 5865 5864 5863 5862 5860 5859 5858 5856 5854 5852 5851 5849 5847 5846 5844 5842 5840 5838 5836 5834 5832 5831 5829 5827 5826 5826 5825 5824 5824 5823 5823 5822 5822 5822 5822 5822 5822
5867 5867 5868 5868 5868 5868 5868 5867 5867 5866 5864 5863 5862 5861 5859 5858 5857 5855 5854 5852 5850 5849 5847 5845 5844 5842 5840 5838 5836 5834 5831 5829 5827 5825 5824 5822 5821 5820 5820 5819 5819 5818 5818 5817 5817 5817 5817 5817 5816
5866 5867 5867 5866 5866 5866 5866 5865 5864 5863 5862 5861 5860 5858 5857 5855 5853 5851 5850 5848 5846 5844 5843 5841 5839 5837 5835 5833 5831 5829 5826 5824 5822 5820 5818 5817 5816 5815 5814 5814 5813 5813 5812 5812 5812 5812 5812 5811 5811
5865 5866 5866 5865 5864 5864 5865 5863 5861 5860 5859 5858 5857 5855 5854 5852 5850 5847 5846 5844 5842 5840 5838 5836 5834 5832 5830 5828 5826 5824 5821 5819 5817 5815 5813 5811 5810 5809 5809 5808 5808 5807 5807 5806 5806 5806 5806 5806 5806
5864 5865 5864 5864 5862 5861 5861 5860 5859 5857 5856 5855 5853 5852 5850 5848 5846 5844 5842 5840 5838 5836 5834 5831 5829 5827 5825 5823 5821 5818 5816 5813 5811 5809 5807 5805 5804 5803 5803 5803 5803 5802 5802 5801 5801 5801 5801 5801 5800
5864 5863 5862 5862 5860 5859 5859 5857 5856 5854 5853 5852 5850 5848 5846 5844 5842 5840 5838 5835 5833 5831 5829 5827 5825 5822 5820 5818 5816 5814 5811 5808 5806 5804 5802 5800 5799 5798 5797 5797 5797 5797 5797 5797 5796 5796 5796 5795 5795
5860 5860 5860 5859 5858 5857 5856 5855 5853 5851 5850 5848 5847 5845 5843 5841 5838 5836 5833 5831 5828 5826 5824 5822 5820 5818 5816 5814 5811 5809 5806 5803 5801 5799 5797 5795 5794 5793 5793 5792 5792 5792 5792 5792 5792 5791 5791 5790 5790
5857 5857 5857 5856 5855 5854 5853 5852 5850 5848 5847 5845 5844 5841 5839 5836 5834 5831 5829 5826 5824 5821 5819 5817 5815 5813 5811 5809 5807 5804 5802 5799 5797 5795 5793 5792 5790 5789 5788 5788 5788 5788 5787 5787 5787 5786 5786 5785 5784
5855 5854 5854 5853 5852 5851 5850 5848 5847 5845 5843 5842 5840 5837 5835 5833 5830 5828 5825 5822 5820 5817 5815 5813 5811 5809 5806 5804 5802 5800 5798 5796 5794 5792 5790 5788 5787 5785 5784 5784 5783 5783 5783 5782 5782 5781 5780 5779 5778
5852 5851 5851 5850 5849 5848 5848 5846 5844 5841 5839 5837 5835 5833 5831 5829 5826 5823 5821 5818 5815 5813 5810 5808 5806 5804 5802 5800 5798 5796 5794 5792 5790 5788 5786 5784 5783 5782 5780 5780 5779 5779 5778 5777 5777 5776 5775 5774 5773
5849 5848 5847 5847 5846 5845 5844 5843 5841 5838 5836 5834 5831 5829 5827 5824 5822 5819 5816 5814 5811 5809 5806 5804 5802 5799 5797 5795 5793 5791 5790 5788 5786 5784 5782 5781 5779 5778 5776 5775 5775 5774 5773 5772 5771 5770 5769 5768 5767
5845 5845 5844 5843 5843 5842 5841 5840 5838 5835 5832 5830 5828 5825 5822 5820 5818 5815 5812 5810 5807 5805 5802 5800 5797 5795 5793 5791 5789 5788 5786 5785 5783 5780 5779 5777 5776 5774 5772 5771 5770 5769 5768 5767 5766 5764 5763 5762 5761
5843 5843 5843 5842 5841 5840 5837 5836 5834 5831 5829 5826 5824 5821 5819 5816 5814 5811 5809 5806 5804 5801 5799 5796 5794 5792 5789 5787 5786 5784 5783 5781 5779 5777 5775 5774 5772 5770 5769 5767 5766 5764 5763 5762 5761 5759 5757 5756 5755
5840 5840 5841 5841 5840 5838 5833 5832 5831 5827 5825 5822 5820 5817 5815 5812 5810 5808 5805 5802 5800 5797 5795 5793 5790 5788 5786 5784 5783 5781 5780 5778 5775 5774 5772 5770 5769 5767 5764 5763 5761 5760 5759 5757 5756 5754 5752 5751 5749
5837 5836 5836 5835 5834 5832 5831 5828 5825 5823 5821 5818 5816 5813 5811 5808 5806 5803 5801 5798 5796 5794 5791 5789 5786 5784 5782 5780 5779 5778 5776 5774 5773 5770 5769 5767 5765 5763 5761 5759 5757 5756 5754 5752 5750 5749 5747 5745 5743
5834 5833 5832 5831 5830 5829 5828 5825 5823 5819 5817 5814 5812 5809 5807 5804 5802 5799 5797 5794 5792 5789 5787 5785 5783 5781 5779 5777 5776 5775 5773 5772 5770 5768 5766 5763 5761 5759 5757 5755 5753 5752 5750 5748 5745 5743 5742 5740 5738
5830 5829 5827 5827 5826 5825 5824 5824 5819 5816 5813 5811 5808 5805 5803 5801 5798 5795 5793 5790 5787 5785 5783 5781 5779 5777 5776 5774 5772 5771 5770 5768 5766 5765 5762 5760 5758 5756 5753 5751 5749 5747 5745 5743 5741 5738 5736 5734 5733
5826 5824 5824 5823 5822 5820 5819 5821 5814 5812 5809 5807 5804 5802 5800 5797 5794 5791 5789 5786 5783 5781 5779 5777 5775 5774 5772 5771 5769 5767 5766 5765 5763 5761 5759 5757 5755 5752 5750 5747 5745 5743 5740 5738 5736 5734 5731 5730 5728